SCP
0 0 0 0 0 0 0 0 0 0 0 0 0 0 0 0 0 0 0 0 0 0 0 0 0 0 0 0 0 0 0 0 0 0 0 0 0 0 0 0 0 0 0 0
0 0 0 0 0 0 0 0 0 0 0 0 0 0 0 0 0 0 0 0 0 0 0 0 0 0 0 0 0 0 0 0 0 0 0 0 0 0 0 0 0 0 0 0
0 0 0 0 0 0 0 0 0 0 0 0 0 0 0 0 0 0 0 0 0 0 0 0 0 0 0 0 0 0 0 0 0 0 0 0 0 0 0 0 0 0 0 0
0 0 0 0 0 0 0 0 0 0 0 0 0 0 0 0 0 0 0 0 0 0 0 0 0 0 0 0 0 0 0 0 0 0 0 0 0 0 0 0 0 0 0 0
0 0 0 0 0 0 0 0 0 0 0 0 0 0 0 0 0 0 0 0 0 0 0 0 0 0 0 0 0 0 0 0 0 0 0 0 0 0 0 0 0 0 0 0
0 0 0 0 0 0 0 0 0 0 0 0 0 0 0 0 0 0 0 0 0 0 0 0 0 0 0 0 0 0 0 0 0 0 0 0 0 0 0 0 0 0 0 0
0 0 0 0 0 0 0 0 0 0 0 0 0 0 0 0 0 0 0 0 0 0 0 0 0 0 0 0 0 0 0 0 0 0 0 0 0 0 0 0 0 0 0 0
0 0 0 0 0 0 0 0 0 0 0 0 0 0 0 0 0 0 0 0 0 0 0 0 0 0 0 0 0 0 0 0 0 0 0 0 0 0 0 0 0 0 0 0
0 0 0 0 0 0 0 0 0 0 0 0 0 0 0 0 0 0 0 0 0 0 0 0 -0 -0 0 0 0 0 0 0 0 0 0 0 0 0 0 0 0 0 0 0
0 0 0 0 0 0 0 0 0 0 0 0 0 0 0 0 0 0 0 0 0 0 0 0 0 0 -0 -0 -0 -0 0 0 0 0 0 0 0 0 0 0 0 0 0 0
0 0 0 0 0 0 0 0 0 0 0 0 0 0 0 0 0 0 0 0 0 0 0 0 0 0 -0 -0 -0 -0 -0 0 0 0 0 0 0 0 0 0 0 0 0 0
0 -0 0 0 0 0 0 0 0 0 0 0 0 0 0 0 0 0 0 0 0 0 0 0 0 0 -0 -0 -0 -0 -0 -0 0 0 0 0 0 0 0 0 0 0 0 0
0 0 0 0 0 0 0 0 0 0 0 0 0 0 0 0 0 0 0 0 0 0 0 0 0 0 -0 -0 -0 -0 -0 -0 -0 0 0 0 0 0 0 0 0 0 0 0
0 0 0 0 0 0 0 0 0 0 0 0 0 0 0 0 0 0 0 0 0 0 0 0 0 0 0 0 0 0 0 0 -0 0 0 0 0 0 0 0 0 0 0 0
0 0 0 0 0 0 0 0 0 0 0 0 0 -0 0 -0 -0 -0 0 0 0 0 0 0 0 0 0 0 0 0 0 0 0 0 0 0 0 0 0 0 0 0 0 0
0 0 0 0 0 0 0 0 0 0 0 0 0 -0 -0 -0 0 0 0 0 0 0 0 0 0 0 0 0 -0 0 0 0 0 0 0 0 0 0 0 0 0 0 0 0
0 0 0 0 0 0 0 0 0 0 0 0 0 0 0 0 0 0 0 0 0 0 0 0 0 0 0 0 0 0 0 0 0 0 0 0 0 0 0 0 0 0 0 0
0 0 0 0 0 0 0 0 -0 0 0 0 0 0 0 0 0 0 0 0 0 0 0 0 0 0 0 0 0 0 0 0 0 0 0 0 0 0 0 0 0 0 0 0
0 0 0 0 0 0 0 0 0 0 0 0 0 0 0 0 0 0 0 0 0 0 0 0 0 0 0 0 0 0 0 0 0 0 0 0 0 0 0 0 0 0 0 0
0 0 0 0 0 0 0 0 0 0 0 -0 -0 0 0 0 0 0 0 0 0 0 0 0 0 0 0 0 0 0 0 0 0 0 0 0 0 0 0 0 0 0 0 0
0 0 0 0 0 0 0 0 0 0 0 0 0 0 0 0 0 0 0 0 0 0 0 0 0 0 0 0 0 0 0 0 0 0 0 0 0 0 0 0 0 0 0 0
0 0 0 0 0 0 0 0 0 0 0 0 0 0 0 0 0 0 0 0 0 0 0 0 0 0 0 0 -0 0 0 0 0 0 0 0 0 0 0 0 0 0 0 0
0 0 0 0 0 0 0 0 0 0 0 0 0 0 0 0 0 0 0 0 0 0 0 0 0 0 0 0 0 0 0 0 0 0 0 0 0 0 0 0 0 0 0 0
0 0 0 0 0 0 0 0 0 0 0 0 0 0 0 0 0 0 0 0 0 0 0 0 0 0 0 0 0 0 0 0 0 0 0 0 0 0 0 0 0 0 0 0
0 0 -0 0 -0 -0 0 0 -0 0 0 0 0 0 0 0 0 0 0 0 0 0 0 0 0 0 0 0 0 0 0 0 0 0 0 0 0 0 0 0 0 0 0 0
-0 -0 0 -0 -0 0 -0 0 0 0 -0 0 0 0 0 0 -0 0 -0 -0 -0 0 0 0 0 0 0 0 0 0 0 0 0 0 0 0 0 0 0 0 0 0 0 0
Wind_Speed_500mb
33 25 34 49 42 43 39 32 37 36 38 29 36 37 38 40 45 38 42 43 40 44 49 47 52 59 64 67 69 84 81 79 80 77 74 72 69 63 58 54 48 44 39 34
33 43 46 40 43 40 43 44 44 38 39 29 33 42 36 38 37 49 46 49 47 47 48 48 53 60 70 72 72 86 90 86 83 76 71 67 66 63 58 58 54 49 44 38
46 27 14 42 41 36 45 44 39 41 37 42 45 51 49 38 35 50 52 55 56 53 50 55 60 65 67 76 79 86 90 88 85 74 68 67 66 59 58 60 58 55 47 42
41 50 47 36 40 36 45 37 40 37 32 34 7 22 21 20 31 31 40 46 50 56 53 47 54 61 68 69 66 75 77 85 88 83 76 82 82 74 65 64 61 58 54 47
20 21 26 47 50 33 46 36 30 29 31 36 43 25 28 24 25 24 24 26 31 39 43 45 52 55 56 62 70 74 75 80 84 90 87 84 73 60 62 61 62 60 56 51
43 43 16 21 22 36 39 33 37 36 27 34 38 34 21 18 4 16 22 28 26 25 16 23 31 40 47 54 62 67 73 78 80 89 90 83 77 67 65 67 66 64 61 56
14 37 43 20 18 1 17 16 9 15 16 29 7 20 27 20 25 23 22 27 31 35 36 18 12 30 38 50 57 62 69 75 81 89 89 88 77 73 73 71 68 67 63 60
13 5 18 33 20 35 18 11 9 11 20 22 6 15 11 24 24 24 24 27 31 40 40 41 15 15 27 41 52 58 66 73 74 80 84 88 79 72 69 69 65 65 62 60
11 6 11 25 27 12 19 42 23 20 28 16 22 29 26 26 18 21 27 31 34 35 38 37 27 3 16 30 45 56 61 69 72 77 83 80 78 74 66 67 66 62 59 57
11 13 7 10 18 20 13 25 11 15 14 19 26 41 18 22 17 22 22 28 38 39 41 40 32 16 9 13 28 41 53 63 71 74 86 90 93 85 70 71 70 64 59 56
6 5 10 22 4 12 11 5 6 9 9 9 17 16 31 34 30 23 25 38 38 45 40 39 33 27 13 14 16 24 41 53 63 66 71 81 82 73 69 74 72 65 60 61
8 7 17 19 22 20 18 2 5 7 11 7 11 3 26 18 40 33 40 52 50 45 40 34 28 26 24 20 22 28 30 44 56 62 66 71 75 73 76 78 71 72 66 52
10 5 17 21 17 7 1 6 6 2 7 5 6 8 8 50 40 51 52 51 48 46 46 40 33 30 26 28 28 30 34 38 47 52 61 65 65 69 76 77 80 72 62 54
6 22 28 30 36 31 35 28 22 18 10 18 20 45 48 49 50 51 54 50 46 49 45 41 41 38 34 32 35 36 35 38 44 53 57 63 66 66 75 83 83 72 61 62
22 30 33 38 38 34 35 37 36 31 32 27 45 45 55 44 44 48 52 51 47 43 40 41 41 41 40 39 36 39 39 40 43 52 59 64 60 62 83 83 79 66 64 64
12 12 14 24 28 31 41 40 39 38 40 42 49 47 52 52 47 46 48 49 46 44 44 45 47 45 44 43 42 38 41 44 45 51 54 62 74 76 79 82 82 70 67 63
17 14 12 32 29 28 27 37 41 44 45 40 36 44 49 45 38 45 59 55 47 41 45 44 40 37 42 42 43 42 43 42 49 50 52 56 65 85 94 92 83 75 77 75
29 28 22 24 32 36 34 40 44 43 39 36 39 45 46 52 59 64 61 47 34 21 28 35 37 37 39 43 44 46 41 46 50 53 57 61 60 63 71 93 87 84 79 69
37 30 25 28 34 42 46 46 43 46 34 34 41 45 55 61 66 55 10 11 27 36 38 36 34 34 40 43 38 44 43 46 50 55 59 68 80 83 87 91 85 82 72 60
21 28 25 28 34 43 43 41 37 19 32 46 41 34 38 36 23 29 54 58 53 41 39 39 32 27 30 35 24 35 41 45 50 48 60 66 79 87 89 89 76 70 65 68
17 16 26 28 36 43 46 45 38 28 38 31 20 31 35 30 36 69 60 51 44 38 36 32 28 26 23 32 26 24 30 35 37 57 67 74 77 76 80 73 70 71 72 65
28 26 28 30 38 53 41 41 41 40 41 32 46 66 68 69 70 58 55 50 40 38 36 30 27 23 17 14 18 17 27 42 47 54 55 60 63 67 73 73 76 71 66 62
30 28 28 37 33 50 63 63 62 56 65 76 71 73 56 59 55 53 53 53 46 39 35 29 22 18 20 14 13 28 31 34 33 38 46 53 60 69 76 76 68 66 61 56
37 44 31 42 55 56 76 79 77 79 81 83 71 68 57 52 46 50 55 51 45 40 31 23 16 11 10 10 14 11 19 22 30 45 51 57 68 74 61 59 61 61 55 47
36 38 43 48 55 66 73 67 64 63 56 54 52 43 48 43 50 49 50 44 41 27 20 17 15 12 8 11 8 9 19 28 41 47 57 64 64 58 61 56 50 42 34 35
40 44 29 36 57 52 60 69 58 56 62 56 51 49 45 47 47 47 47 43 30 19 15 14 14 13 15 15 16 20 24 34 40 51 60 57 58 58 55 51 46 41 35 38
Wind_Direction_500mb
208 230 222 233 232 249 268 266 264 265 267 270 271 271 269 265 259 250 255 250 242 238 239 223 216 209 205 205 205 213 215 213 206 205 203 203 201 202 203 203 203 200 198 197
239 237 244 245 255 249 252 255 259 266 272 278 271 271 272 261 256 254 250 249 242 241 234 223 215 210 207 206 205 212 214 215 210 207 204 205 204 203 205 204 202 201 199 196
243 241 247 246 248 246 246 250 258 265 283 283 277 270 261 247 258 252 244 247 249 242 235 223 215 212 209 208 206 212 211 215 211 204 201 202 204 203 201 202 203 202 199 198
254 260 255 241 241 239 256 253 257 269 266 272 168 286 288 257 251 242 247 244 246 248 246 236 223 218 216 214 209 208 208 211 211 208 206 211 210 204 205 205 203 202 201 199
227 241 239 239 244 236 256 267 266 256 259 272 261 261 272 237 245 257 267 270 267 264 257 245 232 228 222 214 211 209 208 208 211 213 214 214 208 204 204 202 204 203 202 201
261 272 250 281 270 258 246 260 261 256 258 255 249 245 266 265 241 84 48 37 23 7 321 256 241 231 226 218 214 211 207 208 208 212 212 214 209 200 201 202 204 203 203 203
265 242 245 244 263 4 238 207 229 223 217 241 222 230 237 128 74 68 49 41 29 26 23 358 250 223 223 218 215 214 211 210 210 213 215 216 210 210 213 211 205 204 204 205
327 218 355 11 318 287 214 224 197 271 248 255 46 236 175 100 93 74 49 39 29 27 22 19 357 242 228 222 218 216 216 215 211 214 215 217 211 210 213 213 207 208 209 208
343 255 348 24 342 332 261 232 241 252 258 262 254 258 153 139 90 57 40 34 23 16 14 15 18 355 231 223 224 231 220 217 214 215 214 213 211 211 208 209 211 210 209 207
9 296 154 15 2 23 6 318 251 213 242 237 242 243 233 150 77 33 25 20 11 3 3 5 360 1 8 239 228 226 224 222 217 215 218 217 218 217 209 213 213 209 208 208
308 242 293 312 146 304 330 341 318 302 350 312 274 216 106 104 47 9 5 358 345 350 348 345 345 337 296 268 246 238 228 222 219 219 214 215 215 210 209 214 214 213 210 209
155 257 272 280 298 319 284 358 34 348 358 304 280 330 151 21 348 345 342 337 334 330 327 325 317 320 310 282 258 242 234 223 220 218 216 214 212 209 212 213 211 211 210 204
168 227 300 285 183 120 239 182 158 151 219 258 305 293 339 319 315 320 326 323 324 320 319 316 316 303 309 297 273 251 239 227 213 217 214 210 206 204 209 207 211 207 201 218
224 261 258 269 287 306 285 279 260 281 255 277 250 281 287 303 310 316 317 316 316 312 314 313 311 304 288 295 293 269 244 235 219 209 209 212 204 203 207 211 211 204 221 212
245 255 261 266 276 291 284 282 281 270 262 263 279 279 283 293 299 299 302 304 302 302 304 303 298 296 287 272 279 279 254 238 226 217 205 202 204 202 210 210 205 214 204 222
229 258 281 273 275 268 270 272 273 274 269 267 272 281 280 283 292 298 304 302 300 301 299 299 302 299 295 280 263 258 251 237 223 219 218 202 198 204 210 205 205 207 209 199
260 262 253 267 275 274 265 263 269 270 270 272 274 277 282 292 295 304 309 304 300 296 296 302 301 298 302 297 273 256 250 229 224 216 213 212 202 205 209 204 207 203 197 193
255 255 264 272 281 263 268 271 265 268 277 281 275 272 277 280 297 305 304 296 296 313 312 311 314 306 303 293 277 256 239 227 223 214 205 203 200 195 191 198 198 194 192 193
235 247 260 257 260 272 274 268 270 268 280 298 287 289 285 289 299 292 335 331 321 311 313 309 308 307 313 308 279 251 235 223 218 212 205 199 204 198 199 198 191 188 190 189
252 229 245 248 252 260 266 275 282 314 280 270 271 278 280 290 288 291 318 316 313 306 306 309 307 299 309 317 292 242 231 217 214 211 203 200 203 206 202 194 186 184 188 194
236 230 245 251 259 266 273 281 286 248 262 286 304 309 292 294 298 300 307 307 303 299 305 303 302 289 298 318 312 244 222 217 210 204 206 200 201 203 199 190 185 188 188 185
263 264 257 255 255 265 268 267 251 261 273 288 298 303 290 289 293 291 300 309 304 298 302 303 295 279 286 301 311 232 210 213 220 213 211 208 205 202 186 184 187 185 181 180
264 258 268 262 273 283 282 280 281 281 282 284 292 293 287 285 287 289 295 300 298 293 295 289 279 270 278 285 289 234 233 223 214 208 200 195 189 184 182 186 179 179 180 181
267 264 258 269 263 268 274 276 276 277 277 280 279 282 279 281 283 287 293 294 291 290 278 271 263 249 270 267 228 239 232 204 190 182 177 180 180 180 179 177 178 177 180 184
270 280 275 276 277 279 278 276 280 283 278 273 278 276 277 278 281 283 291 291 290 277 258 244 239 224 213 223 227 210 199 178 175 175 175 177 178 174 170 171 172 179 188 200
265 268 266 266 270 274 280 285 283 281 281 278 277 276 276 281 277 286 287 287 272 256 230 224 222 213 202 203 190 189 184 182 178 175 175 174 172 169 167 166 169 182 194 200
Wind_Speed_850mb
33 25 34 49 42 43 39 32 37 36 38 29 36 37 38 40 45 38 42 43 40 44 49 47 52 59 64 67 69 84 81 79 80 77 74 72 69 63 58 54 48 44 39 34
33 43 46 40 43 40 43 44 44 38 39 29 33 42 36 38 37 49 46 49 47 47 48 48 53 60 70 72 72 86 90 86 83 76 71 67 66 63 58 58 54 49 44 38
46 27 14 42 41 36 45 44 39 41 37 42 45 51 49 38 35 50 52 55 56 53 50 55 60 65 67 76 79 86 90 88 85 74 68 67 66 59 58 60 58 55 47 42
41 50 47 36 40 36 45 37 40 37 32 34 7 22 21 20 31 31 40 46 50 56 53 47 54 61 68 69 66 75 77 85 88 83 76 82 82 74 65 64 61 58 54 47
20 21 26 47 50 33 46 36 30 29 31 36 43 25 28 24 25 24 24 26 31 39 43 45 52 55 56 62 70 74 75 80 84 90 87 84 73 60 62 61 62 60 56 51
43 43 16 21 22 36 39 33 37 36 27 34 38 34 21 18 4 16 22 28 26 25 16 23 31 40 47 54 62 67 73 78 80 89 90 83 77 67 65 67 66 64 61 56
14 37 43 20 18 1 17 16 9 15 16 29 7 20 27 20 25 23 22 27 31 35 36 18 12 30 38 50 57 62 69 75 81 89 89 88 77 73 73 71 68 67 63 60
13 5 18 33 20 35 18 11 9 11 20 22 6 15 11 24 24 24 24 27 31 40 40 41 15 15 27 41 52 58 66 73 74 80 84 88 79 72 69 69 65 65 62 60
11 6 11 25 27 12 19 42 23 20 28 16 22 29 26 26 18 21 27 31 34 35 38 37 27 3 16 30 45 56 61 69 72 77 83 80 78 74 66 67 66 62 59 57
11 13 7 10 18 20 13 25 11 15 14 19 26 41 18 22 17 22 22 28 38 39 41 40 32 16 9 13 28 41 53 63 71 74 86 90 93 85 70 71 70 64 59 56
6 5 10 22 4 12 11 5 6 9 9 9 17 16 31 34 30 23 25 38 38 45 40 39 33 27 13 14 16 24 41 53 63 66 71 81 82 73 69 74 72 65 60 61
8 7 17 19 22 20 18 2 5 7 11 7 11 3 26 18 40 33 40 52 50 45 40 34 28 26 24 20 22 28 30 44 56 62 66 71 75 73 76 78 71 72 66 52
10 5 17 21 17 7 1 6 6 2 7 5 6 8 8 50 40 51 52 51 48 46 46 40 33 30 26 28 28 30 34 38 47 52 61 65 65 69 76 77 80 72 62 54
6 22 28 30 36 31 35 28 22 18 10 18 20 45 48 49 50 51 54 50 46 49 45 41 41 38 34 32 35 36 35 38 44 53 57 63 66 66 75 83 83 72 61 62
22 30 33 38 38 34 35 37 36 31 32 27 45 45 55 44 44 48 52 51 47 43 40 41 41 41 40 39 36 39 39 40 43 52 59 64 60 62 83 83 79 66 64 64
12 12 14 24 28 31 41 40 39 38 40 42 49 47 52 52 47 46 48 49 46 44 44 45 47 45 44 43 42 38 41 44 45 51 54 62 74 76 79 82 82 70 67 63
17 14 12 32 29 28 27 37 41 44 45 40 36 44 49 45 38 45 59 55 47 41 45 44 40 37 42 42 43 42 43 42 49 50 52 56 65 85 94 92 83 75 77 75
29 28 22 24 32 36 34 40 44 43 39 36 39 45 46 52 59 64 61 47 34 21 28 35 37 37 39 43 44 46 41 46 50 53 57 61 60 63 71 93 87 84 79 69
37 30 25 28 34 42 46 46 43 46 34 34 41 45 55 61 66 55 10 11 27 36 38 36 34 34 40 43 38 44 43 46 50 55 59 68 80 83 87 91 85 82 72 60
21 28 25 28 34 43 43 41 37 19 32 46 41 34 38 36 23 29 54 58 53 41 39 39 32 27 30 35 24 35 41 45 50 48 60 66 79 87 89 89 76 70 65 68
17 16 26 28 36 43 46 45 38 28 38 31 20 31 35 30 36 69 60 51 44 38 36 32 28 26 23 32 26 24 30 35 37 57 67 74 77 76 80 73 70 71 72 65
28 26 28 30 38 53 41 41 41 40 41 32 46 66 68 69 70 58 55 50 40 38 36 30 27 23 17 14 18 17 27 42 47 54 55 60 63 67 73 73 76 71 66 62
30 28 28 37 33 50 63 63 62 56 65 76 71 73 56 59 55 53 53 53 46 39 35 29 22 18 20 14 13 28 31 34 33 38 46 53 60 69 76 76 68 66 61 56
37 44 31 42 55 56 76 79 77 79 81 83 71 68 57 52 46 50 55 51 45 40 31 23 16 11 10 10 14 11 19 22 30 45 51 57 68 74 61 59 61 61 55 47
36 38 43 48 55 66 73 67 64 63 56 54 52 43 48 43 50 49 50 44 41 27 20 17 15 12 8 11 8 9 19 28 41 47 57 64 64 58 61 56 50 42 34 35
40 44 29 36 57 52 60 69 58 56 62 56 51 49 45 47 47 47 47 43 30 19 15 14 14 13 15 15 16 20 24 34 40 51 60 57 58 58 55 51 46 41 35 38
Wind_Direction_850mb
208 230 222 233 232 249 268 266 264 265 267 270 271 271 269 265 259 250 255 250 242 238 239 223 216 209 205 205 205 213 215 213 206 205 203 203 201 202 203 203 203 200 198 197
239 237 244 245 255 249 252 255 259 266 272 278 271 271 272 261 256 254 250 249 242 241 234 223 215 210 207 206 205 212 214 215 210 207 204 205 204 203 205 204 202 201 199 196
243 241 247 246 248 246 246 250 258 265 283 283 277 270 261 247 258 252 244 247 249 242 235 223 215 212 209 208 206 212 211 215 211 204 201 202 204 203 201 202 203 202 199 198
254 260 255 241 241 239 256 253 257 269 266 272 168 286 288 257 251 242 247 244 246 248 246 236 223 218 216 214 209 208 208 211 211 208 206 211 210 204 205 205 203 202 201 199
227 241 239 239 244 236 256 267 266 256 259 272 261 261 272 237 245 257 267 270 267 264 257 245 232 228 222 214 211 209 208 208 211 213 214 214 208 204 204 202 204 203 202 201
261 272 250 281 270 258 246 260 261 256 258 255 249 245 266 265 241 84 48 37 23 7 321 256 241 231 226 218 214 211 207 208 208 212 212 214 209 200 201 202 204 203 203 203
265 242 245 244 263 4 238 207 229 223 217 241 222 230 237 128 74 68 49 41 29 26 23 358 250 223 223 218 215 214 211 210 210 213 215 216 210 210 213 211 205 204 204 205
327 218 355 11 318 287 214 224 197 271 248 255 46 236 175 100 93 74 49 39 29 27 22 19 357 242 228 222 218 216 216 215 211 214 215 217 211 210 213 213 207 208 209 208
343 255 348 24 342 332 261 232 241 252 258 262 254 258 153 139 90 57 40 34 23 16 14 15 18 355 231 223 224 231 220 217 214 215 214 213 211 211 208 209 211 210 209 207
9 296 154 15 2 23 6 318 251 213 242 237 242 243 233 150 77 33 25 20 11 3 3 5 360 1 8 239 228 226 224 222 217 215 218 217 218 217 209 213 213 209 208 208
308 242 293 312 146 304 330 341 318 302 350 312 274 216 106 104 47 9 5 358 345 350 348 345 345 337 296 268 246 238 228 222 219 219 214 215 215 210 209 214 214 213 210 209
155 257 272 280 298 319 284 358 34 348 358 304 280 330 151 21 348 345 342 337 334 330 327 325 317 320 310 282 258 242 234 223 220 218 216 214 212 209 212 213 211 211 210 204
168 227 300 285 183 120 239 182 158 151 219 258 305 293 339 319 315 320 326 323 324 320 319 316 316 303 309 297 273 251 239 227 213 217 214 210 206 204 209 207 211 207 201 218
224 261 258 269 287 306 285 279 260 281 255 277 250 281 287 303 310 316 317 316 316 312 314 313 311 304 288 295 293 269 244 235 219 209 209 212 204 203 207 211 211 204 221 212
245 255 261 266 276 291 284 282 281 270 262 263 279 279 283 293 299 299 302 304 302 302 304 303 298 296 287 272 279 279 254 238 226 217 205 202 204 202 210 210 205 214 204 222
229 258 281 273 275 268 270 272 273 274 269 267 272 281 280 283 292 298 304 302 300 301 299 299 302 299 295 280 263 258 251 237 223 219 218 202 198 204 210 205 205 207 209 199
260 262 253 267 275 274 265 263 269 270 270 272 274 277 282 292 295 304 309 304 300 296 296 302 301 298 302 297 273 256 250 229 224 216 213 212 202 205 209 204 207 203 197 193
255 255 264 272 281 263 268 271 265 268 277 281 275 272 277 280 297 305 304 296 296 313 312 311 314 306 303 293 277 256 239 227 223 214 205 203 200 195 191 198 198 194 192 193
235 247 260 257 260 272 274 268 270 268 280 298 287 289 285 289 299 292 335 331 321 311 313 309 308 307 313 308 279 251 235 223 218 212 205 199 204 198 199 198 191 188 190 189
252 229 245 248 252 260 266 275 282 314 280 270 271 278 280 290 288 291 318 316 313 306 306 309 307 299 309 317 292 242 231 217 214 211 203 200 203 206 202 194 186 184 188 194
236 230 245 251 259 266 273 281 286 248 262 286 304 309 292 294 298 300 307 307 303 299 305 303 302 289 298 318 312 244 222 217 210 204 206 200 201 203 199 190 185 188 188 185
263 264 257 255 255 265 268 267 251 261 273 288 298 303 290 289 293 291 300 309 304 298 302 303 295 279 286 301 311 232 210 213 220 213 211 208 205 202 186 184 187 185 181 180
264 258 268 262 273 283 282 280 281 281 282 284 292 293 287 285 287 289 295 300 298 293 295 289 279 270 278 285 289 234 233 223 214 208 200 195 189 184 182 186 179 179 180 181
267 264 258 269 263 268 274 276 276 277 277 280 279 282 279 281 283 287 293 294 291 290 278 271 263 249 270 267 228 239 232 204 190 182 177 180 180 180 179 177 178 177 180 184
270 280 275 276 277 279 278 276 280 283 278 273 278 276 277 278 281 283 291 291 290 277 258 244 239 224 213 223 227 210 199 178 175 175 175 177 178 174 170 171 172 179 188 200
265 268 266 266 270 274 280 285 283 281 281 278 277 276 276 281 277 286 287 287 272 256 230 224 222 213 202 203 190 189 184 182 178 175 175 174 172 169 167 166 169 182 194 200